Regional Weather Roundup
Issued by NWS

Home | Current Version | Previous Version | Text Only | Print | Product List | Glossary Off
Versions: 1 2 3 4 5 6 7 8 9 10 11 12 13 14 15 16 17 18 19 20 21 22 23 24 25 26 27 28 29 30 31 32 33 34 35 36 37 38 39 40 41 42 43 44 45 46 47 48 49 50

000
ASUS45 KCYS 051510
RWRWY

WYOMING REGIONAL WEATHER ROUNDUP
NATIONAL WEATHER SERVICE CHEYENNE WY
800 AM MST THU MAR 05 2015

NOTE:  "FAIR" INDICATES FEW OR NO CLOUDS BELOW 12,000 FEET
WITH NO SIGNIFICANT WEATHER AND/OR OBSTRUCTIONS TO VISIBILITY.

WYZ001-051600-
YELLOWSTONE NATIONAL PARK

CITY           SKY/WX    TMP DP  RH WIND       PRES   REMARKS
LK YELLOWSTONE   N/A     -1  -6  79 CALM      30.29R
W YELLOWSTONE  NOT AVBL

$$
WYZ002>013-054>058-071-098>099-051600-
NORTHERN WYOMING

CITY           SKY/WX    TMP DP  RH WIND       PRES   REMARKS
JACKSON        SUNNY     -4  -8  84 N8        30.35R WCI -19
CODY           FAIR      19   7  58 N6        30.13R WCI  11
GREYBULL       PTSUNNY   13   6  74 SE3       30.24R
WORLAND        FAIR      13   3  64 SW3       30.22R
SHERIDAN       FAIR      20   8  60 CALM      30.12R
BUFFALO          N/A    N/A N/A N/A MISG      30.11R
GILLETTE       FAIR      25   7  46 W16       30.11R WCI  12
HULETT         CLOUDY    19   3  49 SW9       30.10S WCI   9
NEWCASTLE      FAIR      12   5  73 CALM      30.16R

$$
WYZ014>020-022>026-101>103-051600-
CENTRAL WYOMING

CITY           SKY/WX    TMP DP  RH WIND       PRES   REMARKS
BIG PINEY      FAIR      11   3  70 CALM      30.28R
PINEDALE       FAIR      14   5  67 W16       30.26R WCI  -2
DUBOIS         FAIR      18   5  57 NW15      30.20R WCI   3
LANDER         FAIR       2  -2  83 CALM      30.18R
RIVERTON       FAIR       1  -3  83 MISG      30.20R
CASPER         FAIR      18   9  68 SW21      30.18R WCI   1
DOUGLAS        FAIR       3  -1  83 N6        30.18R WCI  -8

$$
WYZ021-027>030-104>119-051600-
SOUTHERN WYOMING

CITY           SKY/WX    TMP DP  RH WIND       PRES   REMARKS
EVANSTON       FAIR      14   6  70 S8        30.33R WCI   3
FORT BRIDGER   FAIR      23  11  60 W15       30.34R WCI  10
ROCK SPRINGS   FAIR      19   9  65 S21       30.28R WCI   3
DIXON          FAIR       7   2  79 CALM      30.37R
RAWLINS        FAIR      19   7  59 S8        30.23R WCI   9
SARATOGA       FAIR      14   5  67 SE6       30.27R WCI   5
LARAMIE        FAIR      20   6  55 SW18      30.14R WCI   5
CHEYENNE       FAIR      27   8  44 SW6       30.14R WCI  20
TORRINGTON     FAIR      12   4  70 NW5       30.18R WCI   4
PINE BLUFFS    FAIR      19  12  73 S5        30.19R WCI  13

$$



USA.gov is the U.S. government's official web portal to all federal, state and local government web resources and services.